QPF
0.01 0.00 0.01 0.01 0.00 0.01 0.01 0.01 0.01 0.01 0.01 0.01 0.01 0.00 0.01 0.01 0.01 0.01 0.01 0.02 0.03 0.02 0.02 0.03 0.06 0.06 0.05 0.05 0.04 0.03 0.06 0.06 0.06 0.06 0.08 0.08 0.07 0.07 0.08 0.11 0.12 0.11 0.08 0.07 0.06 0.08 0.08 0.08 0.06
0.00 0.00 0.00 0.00 0.00 0.01 0.01 0.01 0.01 0.01 0.02 0.02 0.02 0.01 0.01 0.01 0.02 0.02 0.02 0.02 0.02 0.01 0.01 0.02 0.04 0.05 0.07 0.07 0.05 0.03 0.04 0.06 0.07 0.08 0.08 0.06 0.06 0.08 0.08 0.09 0.08 0.08 0.06 0.07 0.08 0.08 0.07 0.08 0.08
0.00 0.00 0.00 0.00 0.00 0.01 0.01 0.01 0.01 0.01 0.02 0.01 0.01 0.01 0.01 0.01 0.01 0.03 0.03 0.01 0.01 0.02 0.02 0.03 0.05 0.06 0.07 0.07 0.04 0.03 0.04 0.05 0.05 0.06 0.06 0.05 0.06 0.09 0.11 0.12 0.09 0.07 0.06 0.08 0.09 0.09 0.08 0.08 0.09
0.00 0.00 0.00 0.01 0.01 0.00 0.00 0.01 0.02 0.01 0.01 0.01 0.01 0.01 0.00 0.01 0.00 0.01 0.02 0.01 0.01 0.01 0.03 0.06 0.08 0.06 0.06 0.05 0.03 0.02 0.04 0.03 0.03 0.05 0.06 0.07 0.08 0.09 0.14 0.15 0.10 0.07 0.08 0.09 0.09 0.07 0.07 0.09 0.09
0.00 0.00 0.01 0.01 0.01 0.01 0.00 0.01 0.02 0.01 0.01 0.01 0.01 0.00 0.01 0.01 0.01 0.00 0.01 0.01 0.00 0.01 0.02 0.04 0.06 0.04 0.03 0.02 0.03 0.03 0.02 0.02 0.02 0.04 0.07 0.09 0.11 0.16 0.20 0.12 0.08 0.07 0.08 0.10 0.10 0.08 0.10 0.10 0.08
0.00 0.00 0.01 0.01 0.01 0.01 0.01 0.01 0.01 0.01 0.01 0.00 0.00 0.00 0.01 0.02 0.02 0.01 0.01 0.01 0.01 0.01 0.01 0.02 0.03 0.03 0.02 0.03 0.04 0.03 0.02 0.02 0.03 0.04 0.06 0.08 0.08 0.09 0.10 0.07 0.08 0.08 0.09 0.10 0.10 0.09 0.10 0.08 0.06
0.01 0.01 0.01 0.01 0.02 0.01 0.01 0.01 0.01 0.01 0.01 0.01 0.00 0.00 0.01 0.02 0.02 0.02 0.01 0.01 0.01 0.01 0.01 0.02 0.02 0.02 0.03 0.04 0.03 0.03 0.03 0.04 0.04 0.05 0.07 0.07 0.06 0.05 0.06 0.07 0.10 0.11 0.13 0.13 0.12 0.12 0.10 0.07 0.05
0.00 0.01 0.01 0.01 0.01 0.01 0.01 0.01 0.00 0.00 0.01 0.00 0.00 0.00 0.01 0.01 0.01 0.02 0.01 0.01 0.01 0.01 0.01 0.00 0.01 0.01 0.02 0.02 0.01 0.01 0.02 0.03 0.04 0.05 0.07 0.07 0.05 0.05 0.06 0.08 0.14 0.16 0.17 0.18 0.15 0.13 0.10 0.07 0.06
0.00 0.01 0.02 0.01 0.02 0.01 0.01 0.01 0.00 0.00 0.01 0.01 0.00 0.00 0.00 0.00 0.00 0.01 0.01 0.01 0.01 0.00 0.00 0.00 0.00 0.00 0.00 0.00 0.00 0.00 0.01 0.01 0.01 0.02 0.03 0.03 0.05 0.07 0.07 0.06 0.09 0.16 0.19 0.18 0.15 0.12 0.10 0.07 0.06
0.01 0.02 0.01 0.01 0.01 0.01 0.01 0.00 0.00 0.00 0.01 0.02 0.01 0.00 0.01 0.01 0.01 0.01 0.01 0.01 0.01 0.00 0.00 0.00 0.00 0.00 0.00 0.00 0.00 0.00 0.01 0.00 0.01 0.01 0.01 0.02 0.03 0.03 0.04 0.06 0.08 0.14 0.23 0.22 0.18 0.17 0.13 0.07 0.05
0.01 0.01 0.00 0.00 0.00 0.00 0.00 0.00 0.00 0.01 0.01 0.01 0.01 0.02 0.02 0.01 0.01 0.01 0.01 0.01 0.02 0.01 0.00 0.01 0.00 0.00 0.00 0.00 0.00 0.00 0.00 0.00 0.00 0.01 0.01 0.01 0.01 0.01 0.02 0.04 0.06 0.12 0.24 0.30 0.27 0.22 0.11 0.05 0.05
0.01 0.00 0.00 0.00 0.00 0.00 0.00 0.00 0.00 0.00 0.00 0.01 0.01 0.01 0.02 0.02 0.01 0.01 0.02 0.02 0.02 0.01 0.01 0.01 0.00 0.00 0.00 0.00 0.00 0.00 0.00 0.00 0.01 0.01 0.01 0.01 0.01 0.01 0.01 0.02 0.03 0.11 0.21 0.26 0.28 0.17 0.07 0.06 0.04
0.00 0.00 0.00 0.00 0.00 0.00 0.01 0.01 0.00 0.00 0.00 0.01 0.01 0.01 0.02 0.02 0.02 0.01 0.02 0.02 0.02 0.02 0.01 0.01 0.01 0.01 0.00 0.00 0.00 0.00 0.00 0.00 0.01 0.01 0.01 0.02 0.01 0.01 0.01 0.01 0.02 0.07 0.15 0.19 0.20 0.13 0.10 0.06 0.02
0.00 0.00 0.00 0.00 0.00 0.00 0.01 0.01 0.01 0.01 0.00 0.00 0.01 0.01 0.02 0.03 0.03 0.01 0.01 0.02 0.02 0.02 0.01 0.01 0.01 0.01 0.01 0.00 0.00 0.00 0.00 0.00 0.00 0.00 0.01 0.01 0.01 0.01 0.01 0.01 0.01 0.05 0.10 0.13 0.13 0.11 0.11 0.07 0.03
0.01 0.01 0.00 0.00 0.00 0.00 0.01 0.01 0.01 0.00 0.00 0.00 0.00 0.01 0.01 0.01 0.02 0.02 0.02 0.03 0.03 0.02 0.01 0.01 0.01 0.00 0.01 0.00 0.00 0.00 0.00 0.00 0.00 0.00 0.00 0.00 0.00 0.00 0.00 0.00 0.01 0.03 0.07 0.09 0.10 0.10 0.10 0.08 0.06
0.01 0.02 0.02 0.02 0.01 0.01 0.01 0.01 0.00 0.00 0.00 0.00 0.01 0.01 0.01 0.01 0.01 0.01 0.02 0.03 0.04 0.03 0.02 0.02 0.02 0.01 0.00 0.00 0.00 0.00 0.00 0.00 0.00 0.00 0.00 0.00 0.00 0.00 0.00 0.00 0.00 0.01 0.03 0.05 0.06 0.06 0.06 0.07 0.06
0.01 0.02 0.02 0.02 0.01 0.01 0.01 0.01 0.00 0.00 0.00 0.01 0.02 0.01 0.01 0.01 0.01 0.01 0.02 0.03 0.04 0.03 0.02 0.02 0.02 0.02 0.01 0.00 0.00 0.01 0.01 0.00 0.00 0.00 0.00 0.00 0.00 0.00 0.00 0.00 0.00 0.01 0.01 0.02 0.03 0.02 0.03 0.03 0.03
0.01 0.02 0.02 0.02 0.01 0.01 0.01 0.00 0.00 0.00 0.00 0.01 0.01 0.01 0.01 0.01 0.01 0.01 0.02 0.02 0.04 0.03 0.02 0.03 0.02 0.02 0.01 0.01 0.00 0.01 0.00 0.00 0.00 0.00 0.00 0.00 0.00 0.00 0.00 0.00 0.00 0.00 0.01 0.01 0.01 0.01 0.02 0.02 0.02
0.01 0.01 0.01 0.00 0.00 0.00 0.00 0.00 0.00 0.00 0.00 0.00 0.00 0.00 0.01 0.01 0.01 0.01 0.02 0.03 0.04 0.03 0.01 0.03 0.04 0.03 0.02 0.01 0.00 0.00 0.00 0.00 0.00 0.00 0.00 0.00 0.00 0.00 0.00 0.00 0.00 0.00 0.00 0.00 0.01 0.00 0.01 0.01 0.01
0.00 0.00 0.00 0.00 0.00 0.01 0.01 0.00 0.00 0.00 0.00 0.00 0.00 0.01 0.01 0.01 0.01 0.02 0.03 0.03 0.03 0.03 0.01 0.01 0.03 0.03 0.03 0.01 0.00 0.00 0.00 0.00 0.00 0.00 0.00 0.00 0.00 0.00 0.00 0.00 0.00 0.00 0.00 0.00 0.01 0.00 0.01 0.00 0.00
0.00 0.00 0.00 0.01 0.01 0.00 0.00 0.00 0.00 0.00 0.00 0.00 0.00 0.00 0.01 0.01 0.02 0.03 0.03 0.02 0.03 0.02 0.01 0.01 0.01 0.02 0.02 0.02 0.01 0.00 0.00 0.00 0.01 0.00 0.00 0.00 0.00 0.00 0.00 0.00 0.00 0.00 0.00 0.00 0.00 0.00 0.01 0.01 0.01
0.00 0.00 0.00 0.00 0.01 0.01 0.00 0.00 0.00 0.00 0.00 0.00 0.00 0.01 0.01 0.01 0.01 0.01 0.01 0.01 0.01 0.01 0.01 0.01 0.01 0.01 0.02 0.02 0.01 0.01 0.00 0.00 0.00 0.00 0.00 0.00 0.00 0.00 0.00 0.00 0.00 0.00 0.00 0.01 0.01 0.01 0.01 0.01 0.01
0.00 0.00 0.00 0.01 0.00 0.00 0.00 0.00 0.00 0.00 0.00 0.00 0.00 0.00 0.01 0.01 0.01 0.01 0.01 0.01 0.01 0.00 0.00 0.01 0.01 0.02 0.02 0.02 0.02 0.01 0.00 0.00 0.00 0.00 0.00 0.00 0.00 0.00 0.00 0.00 0.00 0.00 0.00 0.00 0.01 0.01 0.00 0.00 0.01
0.00 0.00 0.00 0.00 0.00 0.01 0.00 0.00 0.00 0.00 0.00 0.00 0.00 0.00 0.00 0.01 0.01 0.01 0.00 0.01 0.01 0.00 0.00 0.00 0.01 0.01 0.02 0.03 0.02 0.02 0.01 0.00 0.01 0.01 0.00 0.00 0.00 0.00 0.00 0.00 0.00 0.00 0.00 0.00 0.00 0.01 0.00 0.00 0.01
0.00 0.01 0.02 0.01 0.01 0.01 0.00 0.00 0.00 0.00 0.00 0.00 0.00 0.00 0.01 0.01 0.01 0.00 0.00 0.00 0.01 0.00 0.00 0.00 0.00 0.01 0.01 0.03 0.04 0.04 0.02 0.01 0.02 0.02 0.01 0.01 0.00 0.00 0.00 0.00 0.00 0.00 0.00 0.00 0.00 0.00 0.00 0.00 0.00
0.00 0.00 0.01 0.02 0.01 0.01 0.00 0.00 0.00 0.00 0.00 0.00 0.00 0.00 0.00 0.00 0.01 0.01 0.00 0.00 0.01 0.00 0.00 0.00 0.01 0.01 0.01 0.03 0.04 0.05 0.04 0.02 0.02 0.04 0.03 0.02 0.01 0.00 0.00 0.00 0.00 0.00 0.00 0.00 0.00 0.00 0.00 0.00 0.00
0.01 0.01 0.00 0.01 0.01 0.01 0.00 0.00 0.00 0.00 0.00 0.00 0.00 0.00 0.00 0.00 0.00 0.00 0.00 0.01 0.01 0.00 0.00 0.01 0.01 0.01 0.01 0.03 0.03 0.04 0.05 0.04 0.05 0.04 0.03 0.02 0.01 0.00 0.00 0.00 0.00 0.00 0.00 0.00 0.00 0.00 0.00 0.00 0.00
0.00 0.01 0.01 0.01 0.01 0.01 0.00 0.00 0.01 0.00 0.00 0.00 0.00 0.00 0.00 0.00 0.00 0.00 0.01 0.01 0.01 0.00 0.00 0.00 0.00 0.00 0.01 0.02 0.03 0.03 0.05 0.05 0.06 0.06 0.05 0.04 0.02 0.01 0.00 0.00 0.00 0.00 0.00 0.00 0.00 0.00 0.00 0.00 0.00
0.00 0.01 0.01 0.01 0.01 0.01 0.01 0.01 0.00 0.00 0.00 0.00 0.00 0.00 0.00 0.00 0.00 0.00 0.00 0.00 0.00 0.00 0.00 0.00 0.00 0.00 0.00 0.01 0.01 0.02 0.04 0.06 0.06 0.07 0.06 0.04 0.02 0.01 0.00 0.00 0.00 0.00 0.00 0.01 0.00 0.00 0.00 0.00 0.00
0.00 0.00 0.01 0.01 0.01 0.01 0.01 0.01 0.00 0.00 0.00 0.00 0.00 0.00 0.00 0.00 0.00 0.00 0.00 0.00 0.00 0.01 0.00 0.00 0.00 0.00 0.00 0.01 0.01 0.02 0.03 0.04 0.06 0.06 0.05 0.04 0.02 0.01 0.00 0.00 0.00 0.00 0.00 0.01 0.01 0.00 0.00 0.00 0.00
MSLP
1009.48 1010.17 1011.03 1011.98 1012.91 1013.75 1014.41 1014.87 1015.11 1015.17 1015.11 1015.00 1014.88 1014.80 1014.75 1014.71 1014.66 1014.56 1014.40 1014.18 1013.92 1013.66 1013.42 1013.24 1013.12 1013.04 1012.98 1012.91 1012.80 1012.67 1012.53 1012.42 1012.37 1012.44 1012.62 1012.93 1013.31 1013.72 1014.09 1014.38 1014.55 1014.60 1014.56 1014.46 1014.36 1014.29 1014.28 1014.34 1014.46
1009.81 1010.64 1011.60 1012.59 1013.52 1014.28 1014.83 1015.12 1015.19 1015.08 1014.88 1014.67 1014.50 1014.39 1014.35 1014.35 1014.34 1014.29 1014.18 1014.00 1013.79 1013.58 1013.41 1013.29 1013.24 1013.23 1013.23 1013.21 1013.14 1013.03 1012.89 1012.76 1012.70 1012.74 1012.90 1013.18 1013.55 1013.94 1014.30 1014.58 1014.73 1014.77 1014.71 1014.59 1014.47 1014.39 1014.36 1014.41 1014.51
1010.27 1011.19 1012.20 1013.19 1014.04 1014.70 1015.09 1015.21 1015.12 1014.87 1014.57 1014.28 1014.08 1013.97 1013.95 1013.99 1014.02 1014.01 1013.94 1013.80 1013.63 1013.47 1013.35 1013.29 1013.31 1013.37 1013.44 1013.48 1013.46 1013.39 1013.27 1013.14 1013.07 1013.09 1013.23 1013.48 1013.82 1014.18 1014.51 1014.76 1014.89 1014.91 1014.84 1014.73 1014.60 1014.51 1014.49 1014.53 1014.62
1010.83 1011.81 1012.80 1013.72 1014.47 1014.97 1015.20 1015.17 1014.94 1014.59 1014.22 1013.91 1013.70 1013.62 1013.63 1013.70 1013.76 1013.78 1013.72 1013.61 1013.47 1013.34 1013.27 1013.27 1013.35 1013.48 1013.61 1013.71 1013.75 1013.71 1013.62 1013.51 1013.45 1013.46 1013.58 1013.80 1014.09 1014.41 1014.71 1014.92 1015.04 1015.06 1014.99 1014.89 1014.78 1014.71 1014.69 1014.73 1014.82
1011.44 1012.41 1013.35 1014.16 1014.77 1015.11 1015.19 1015.03 1014.70 1014.29 1013.91 1013.60 1013.43 1013.38 1013.43 1013.53 1013.61 1013.63 1013.59 1013.48 1013.36 1013.26 1013.22 1013.26 1013.39 1013.57 1013.75 1013.90 1013.98 1013.98 1013.92 1013.84 1013.78 1013.79 1013.88 1014.07 1014.33 1014.61 1014.87 1015.07 1015.17 1015.19 1015.15 1015.08 1015.00 1014.96 1014.97 1015.03 1015.12
1012.03 1012.94 1013.78 1014.46 1014.91 1015.10 1015.06 1014.81 1014.43 1014.02 1013.66 1013.40 1013.28 1013.28 1013.37 1013.48 1013.56 1013.58 1013.53 1013.43 1013.31 1013.22 1013.20 1013.28 1013.43 1013.64 1013.86 1014.04 1014.15 1014.18 1014.14 1014.08 1014.03 1014.04 1014.12 1014.28 1014.51 1014.75 1014.98 1015.16 1015.27 1015.31 1015.31 1015.28 1015.26 1015.27 1015.31 1015.39 1015.48
1012.50 1013.33 1014.05 1014.58 1014.89 1014.96 1014.82 1014.53 1014.15 1013.78 1013.48 1013.30 1013.24 1013.29 1013.40 1013.52 1013.60 1013.60 1013.54 1013.42 1013.31 1013.23 1013.23 1013.32 1013.49 1013.71 1013.94 1014.13 1014.25 1014.29 1014.27 1014.22 1014.18 1014.18 1014.26 1014.40 1014.60 1014.82 1015.03 1015.20 1015.32 1015.40 1015.44 1015.47 1015.51 1015.57 1015.66 1015.76 1015.86
1012.83 1013.55 1014.14 1014.53 1014.71 1014.69 1014.51 1014.21 1013.87 1013.57 1013.35 1013.24 1013.25 1013.34 1013.47 1013.59 1013.65 1013.63 1013.56 1013.44 1013.33 1013.26 1013.27 1013.37 1013.55 1013.77 1013.98 1014.16 1014.28 1014.32 1014.30 1014.26 1014.22 1014.23 1014.29 1014.42 1014.60 1014.80 1015.00 1015.17 1015.32 1015.43 1015.53 1015.62 1015.72 1015.83 1015.96 1016.08 1016.19
1012.98 1013.60 1014.06 1014.33 1014.42 1014.34 1014.13 1013.86 1013.58 1013.35 1013.22 1013.18 1013.24 1013.36 1013.49 1013.59 1013.64 1013.61 1013.53 1013.42 1013.32 1013.27 1013.30 1013.41 1013.59 1013.79 1013.99 1014.15 1014.25 1014.28 1014.26 1014.21 1014.18 1014.18 1014.24 1014.36 1014.52 1014.71 1014.91 1015.09 1015.26 1015.41 1015.56 1015.70 1015.86 1016.02 1016.18 1016.32 1016.43
1013.01 1013.52 1013.86 1014.04 1014.06 1013.94 1013.74 1013.50 1013.28 1013.13 1013.05 1013.07 1013.15 1013.27 1013.40 1013.48 1013.51 1013.48 1013.41 1013.32 1013.26 1013.24 1013.29 1013.42 1013.59 1013.79 1013.96 1014.10 1014.17 1014.19 1014.16 1014.12 1014.08 1014.09 1014.15 1014.26 1014.41 1014.59 1014.79 1014.98 1015.17 1015.35 1015.54 1015.73 1015.93 1016.12 1016.30 1016.45 1016.57
1012.96 1013.37 1013.62 1013.72 1013.68 1013.55 1013.36 1013.16 1012.98 1012.87 1012.83 1012.86 1012.95 1013.06 1013.16 1013.23 1013.25 1013.23 1013.18 1013.14 1013.12 1013.15 1013.24 1013.38 1013.56 1013.74 1013.90 1014.02 1014.07 1014.08 1014.05 1014.00 1013.98 1013.98 1014.04 1014.15 1014.30 1014.48 1014.67 1014.87 1015.07 1015.28 1015.50 1015.72 1015.94 1016.15 1016.35 1016.51 1016.63
1012.91 1013.24 1013.41 1013.45 1013.37 1013.22 1013.03 1012.85 1012.69 1012.59 1012.55 1012.57 1012.62 1012.70 1012.78 1012.83 1012.86 1012.86 1012.86 1012.87 1012.91 1013.00 1013.13 1013.30 1013.49 1013.67 1013.82 1013.92 1013.97 1013.97 1013.94 1013.91 1013.89 1013.91 1013.97 1014.07 1014.22 1014.39 1014.59 1014.79 1015.01 1015.23 1015.46 1015.70 1015.94 1016.16 1016.37 1016.53 1016.65
1012.94 1013.19 1013.30 1013.28 1013.17 1013.00 1012.80 1012.61 1012.43 1012.31 1012.23 1012.20 1012.21 1012.25 1012.29 1012.34 1012.39 1012.43 1012.48 1012.56 1012.67 1012.81 1012.99 1013.19 1013.40 1013.59 1013.73 1013.84 1013.89 1013.90 1013.88 1013.86 1013.86 1013.88 1013.95 1014.05 1014.19 1014.36 1014.56 1014.77 1014.99 1015.22 1015.46 1015.71 1015.96 1016.19 1016.39 1016.57 1016.70
1013.10 1013.28 1013.33 1013.27 1013.12 1012.92 1012.70 1012.46 1012.24 1012.06 1011.91 1011.81 1011.76 1011.74 1011.76 1011.81 1011.88 1011.97 1012.09 1012.24 1012.42 1012.62 1012.84 1013.07 1013.30 1013.50 1013.66 1013.77 1013.84 1013.87 1013.88 1013.88 1013.89 1013.92 1013.99 1014.09 1014.23 1014.39 1014.58 1014.79 1015.02 1015.26 1015.51 1015.77 1016.02 1016.26 1016.47 1016.65 1016.80
1013.37 1013.50 1013.51 1013.41 1013.23 1012.99 1012.71 1012.42 1012.13 1011.86 1011.62 1011.44 1011.31 1011.24 1011.24 1011.29 1011.39 1011.54 1011.72 1011.93 1012.17 1012.42 1012.68 1012.94 1013.18 1013.40 1013.59 1013.73 1013.83 1013.89 1013.93 1013.95 1013.97 1014.01 1014.08 1014.18 1014.30 1014.46 1014.65 1014.86 1015.10 1015.34 1015.61 1015.87 1016.13 1016.38 1016.61 1016.81 1016.98
1013.73 1013.82 1013.79 1013.67 1013.46 1013.18 1012.86 1012.49 1012.11 1011.74 1011.39 1011.11 1010.90 1010.78 1010.75 1010.81 1010.94 1011.13 1011.37 1011.63 1011.92 1012.21 1012.50 1012.78 1013.05 1013.30 1013.52 1013.70 1013.84 1013.94 1014.01 1014.06 1014.10 1014.14 1014.20 1014.28 1014.39 1014.54 1014.73 1014.95 1015.19 1015.45 1015.72 1016.00 1016.27 1016.54 1016.78 1017.01 1017.20
1014.12 1014.18 1014.14 1014.00 1013.78 1013.47 1013.09 1012.65 1012.17 1011.69 1011.23 1010.84 1010.54 1010.36 1010.30 1010.36 1010.51 1010.74 1011.02 1011.32 1011.64 1011.96 1012.27 1012.58 1012.88 1013.16 1013.42 1013.66 1013.85 1014.00 1014.11 1014.18 1014.23 1014.27 1014.31 1014.38 1014.48 1014.62 1014.80 1015.02 1015.27 1015.54 1015.83 1016.13 1016.42 1016.70 1016.96 1017.21 1017.43
1014.46 1014.52 1014.49 1014.36 1014.14 1013.82 1013.39 1012.87 1012.30 1011.69 1011.12 1010.62 1010.23 1009.98 1009.88 1009.92 1010.08 1010.32 1010.62 1010.95 1011.29 1011.62 1011.96 1012.30 1012.63 1012.96 1013.28 1013.58 1013.83 1014.04 1014.19 1014.29 1014.34 1014.37 1014.40 1014.45 1014.53 1014.66 1014.83 1015.06 1015.32 1015.61 1015.91 1016.22 1016.52 1016.82 1017.10 1017.37 1017.62
1014.69 1014.77 1014.78 1014.69 1014.49 1014.17 1013.71 1013.12 1012.45 1011.73 1011.04 1010.42 1009.93 1009.61 1009.46 1009.46 1009.61 1009.85 1010.15 1010.48 1010.83 1011.18 1011.53 1011.90 1012.28 1012.67 1013.06 1013.43 1013.76 1014.03 1014.22 1014.35 1014.41 1014.44 1014.45 1014.48 1014.54 1014.66 1014.83 1015.06 1015.33 1015.63 1015.95 1016.26 1016.57 1016.87 1017.17 1017.44 1017.71
1014.77 1014.90 1014.97 1014.94 1014.79 1014.48 1013.99 1013.36 1012.59 1011.77 1010.96 1010.23 1009.64 1009.23 1009.01 1008.97 1009.08 1009.29 1009.58 1009.90 1010.25 1010.61 1010.98 1011.39 1011.82 1012.28 1012.75 1013.20 1013.60 1013.94 1014.19 1014.35 1014.43 1014.45 1014.46 1014.47 1014.52 1014.63 1014.80 1015.03 1015.31 1015.61 1015.93 1016.25 1016.55 1016.85 1017.14 1017.41 1017.68
1014.69 1014.89 1015.04 1015.09 1014.99 1014.71 1014.22 1013.54 1012.70 1011.78 1010.86 1010.03 1009.34 1008.84 1008.55 1008.45 1008.51 1008.69 1008.94 1009.24 1009.57 1009.93 1010.33 1010.77 1011.26 1011.79 1012.33 1012.87 1013.35 1013.76 1014.06 1014.26 1014.37 1014.41 1014.41 1014.42 1014.48 1014.58 1014.76 1014.99 1015.27 1015.57 1015.88 1016.18 1016.47 1016.75 1017.02 1017.28 1017.55
1014.47 1014.75 1014.99 1015.12 1015.08 1014.84 1014.35 1013.64 1012.75 1011.76 1010.76 1009.84 1009.07 1008.50 1008.13 1007.96 1007.96 1008.09 1008.29 1008.55 1008.85 1009.20 1009.60 1010.07 1010.61 1011.20 1011.82 1012.43 1013.00 1013.47 1013.84 1014.09 1014.22 1014.29 1014.31 1014.34 1014.40 1014.52 1014.70 1014.94 1015.21 1015.51 1015.80 1016.08 1016.34 1016.59 1016.83 1017.07 1017.32
1014.18 1014.52 1014.83 1015.04 1015.06 1014.85 1014.38 1013.66 1012.75 1011.72 1010.67 1009.70 1008.88 1008.24 1007.82 1007.59 1007.53 1007.58 1007.72 1007.92 1008.18 1008.49 1008.88 1009.36 1009.92 1010.56 1011.23 1011.91 1012.54 1013.08 1013.51 1013.80 1013.99 1014.09 1014.15 1014.21 1014.30 1014.43 1014.63 1014.87 1015.15 1015.43 1015.70 1015.95 1016.18 1016.39 1016.60 1016.82 1017.05
1013.85 1014.24 1014.61 1014.86 1014.93 1014.75 1014.31 1013.61 1012.70 1011.68 1010.63 1009.66 1008.82 1008.16 1007.70 1007.42 1007.29 1007.27 1007.32 1007.44 1007.62 1007.87 1008.22 1008.67 1009.23 1009.88 1010.59 1011.31 1011.98 1012.58 1013.06 1013.41 1013.64 1013.80 1013.91 1014.01 1014.14 1014.31 1014.53 1014.79 1015.06 1015.33 1015.58 1015.81 1016.00 1016.18 1016.36 1016.55 1016.77
1013.55 1013.96 1014.35 1014.63 1014.72 1014.57 1014.16 1013.50 1012.65 1011.68 1010.69 1009.76 1008.95 1008.31 1007.84 1007.52 1007.32 1007.21 1007.16 1007.18 1007.25 1007.41 1007.67 1008.06 1008.58 1009.21 1009.91 1010.64 1011.34 1011.97 1012.49 1012.89 1013.18 1013.39 1013.56 1013.72 1013.90 1014.11 1014.37 1014.65 1014.93 1015.20 1015.43 1015.63 1015.80 1015.96 1016.12 1016.29 1016.50
1013.32 1013.72 1014.09 1014.37 1014.47 1014.35 1013.98 1013.39 1012.63 1011.77 1010.88 1010.05 1009.33 1008.74 1008.27 1007.93 1007.66 1007.46 1007.29 1007.17 1007.10 1007.13 1007.28 1007.57 1008.00 1008.57 1009.23 1009.94 1010.63 1011.27 1011.82 1012.26 1012.60 1012.86 1013.09 1013.31 1013.55 1013.82 1014.11 1014.42 1014.72 1015.00 1015.23 1015.42 1015.58 1015.73 1015.87 1016.04 1016.25
1013.21 1013.55 1013.88 1014.13 1014.22 1014.13 1013.82 1013.33 1012.70 1011.98 1011.25 1010.56 1009.95 1009.44 1009.01 1008.64 1008.31 1008.00 1007.70 1007.42 1007.19 1007.06 1007.06 1007.21 1007.53 1008.00 1008.58 1009.23 1009.89 1010.51 1011.06 1011.53 1011.90 1012.22 1012.50 1012.78 1013.08 1013.40 1013.74 1014.08 1014.41 1014.71 1014.96 1015.16 1015.32 1015.47 1015.62 1015.80 1016.01
1013.24 1013.50 1013.77 1013.96 1014.05 1013.98 1013.75 1013.37 1012.89 1012.35 1011.81 1011.29 1010.82 1010.39 1010.01 1009.62 1009.22 1008.80 1008.35 1007.91 1007.50 1007.19 1007.02 1007.01 1007.19 1007.53 1008.01 1008.57 1009.17 1009.75 1010.28 1010.74 1011.13 1011.48 1011.81 1012.13 1012.48 1012.85 1013.24 1013.63 1014.00 1014.32 1014.60 1014.82 1015.01 1015.17 1015.34 1015.53 1015.76
1013.42 1013.60 1013.79 1013.94 1014.00 1013.96 1013.82 1013.57 1013.26 1012.91 1012.55 1012.20 1011.87 1011.54 1011.19 1010.79 1010.32 1009.78 1009.19 1008.58 1008.00 1007.51 1007.16 1006.98 1007.01 1007.21 1007.56 1008.02 1008.52 1009.03 1009.51 1009.95 1010.33 1010.69 1011.04 1011.39 1011.78 1012.19 1012.62 1013.06 1013.47 1013.83 1014.15 1014.41 1014.63 1014.82 1015.01 1015.22 1015.46
1013.75 1013.86 1013.98 1014.08 1014.14 1014.14 1014.07 1013.95 1013.80 1013.62 1013.44 1013.25 1013.05 1012.79 1012.47 1012.05 1011.51 1010.86 1010.14 1009.38 1008.64 1007.99 1007.48 1007.15 1007.02 1007.08 1007.29 1007.62 1008.02 1008.43 1008.84 1009.22 1009.57 1009.90 1010.25 1010.62 1011.02 1011.46 1011.92 1012.39 1012.84 1013.26 1013.62 1013.92 1014.18 1014.41 1014.62 1014.85 1015.09
Thickness
5788 5791 5792 5784 5771 5757 5746 5749 5757 5756 5759 5765 5767 5766 5762 5758 5754 5747 5762 5769 5771 5771 5770 5768 5766 5767 5767 5767 5768 5768 5769 5769 5770 5770 5770 5769 5769 5770 5770 5770 5770 5770 5771 5771 5771 5772 5772 5772 5773
5791 5790 5785 5777 5759 5743 5740 5752 5753 5756 5761 5765 5765 5765 5761 5757 5761 5761 5764 5766 5769 5769 5769 5767 5764 5764 5765 5765 5765 5766 5766 5767 5767 5767 5767 5767 5767 5767 5767 5767 5768 5768 5768 5768 5768 5769 5769 5769 5769
5789 5787 5776 5766 5753 5745 5742 5752 5754 5758 5762 5763 5760 5763 5759 5754 5759 5761 5764 5766 5767 5767 5766 5763 5762 5762 5762 5762 5763 5763 5764 5764 5764 5764 5764 5764 5764 5764 5764 5764 5765 5765 5765 5765 5765 5765 5765 5766 5766
5785 5779 5772 5758 5744 5749 5752 5755 5757 5756 5759 5762 5761 5755 5758 5761 5762 5764 5765 5766 5765 5765 5764 5761 5759 5760 5760 5760 5760 5760 5761 5761 5761 5761 5761 5761 5761 5761 5762 5762 5762 5762 5762 5762 5762 5762 5762 5762 5763
5782 5771 5756 5746 5743 5750 5757 5759 5759 5756 5755 5758 5759 5751 5750 5758 5764 5764 5764 5764 5764 5763 5762 5760 5757 5757 5757 5757 5757 5757 5758 5758 5758 5758 5758 5758 5758 5758 5758 5759 5759 5759 5758 5758 5758 5758 5758 5758 5759
5770 5766 5748 5739 5741 5749 5756 5760 5759 5755 5754 5756 5755 5750 5748 5758 5760 5761 5762 5761 5762 5761 5760 5758 5755 5755 5754 5754 5754 5754 5755 5755 5755 5755 5755 5755 5755 5755 5756 5756 5756 5755 5755 5755 5755 5754 5755 5754 5755
5764 5756 5745 5743 5740 5742 5751 5759 5757 5754 5751 5753 5758 5749 5748 5754 5758 5760 5760 5759 5759 5759 5758 5758 5757 5755 5752 5752 5751 5751 5751 5751 5752 5752 5752 5751 5752 5751 5752 5752 5752 5752 5751 5751 5750 5750 5750 5751 5751
5770 5758 5744 5743 5739 5740 5752 5756 5757 5755 5751 5759 5759 5748 5745 5752 5757 5758 5757 5757 5757 5757 5756 5756 5756 5755 5754 5752 5749 5748 5748 5748 5748 5748 5748 5748 5748 5748 5748 5748 5748 5748 5747 5747 5747 5747 5746 5746 5746
5770 5752 5740 5741 5740 5743 5751 5750 5753 5758 5755 5755 5757 5756 5756 5757 5755 5753 5751 5752 5752 5753 5754 5754 5754 5753 5752 5751 5748 5747 5746 5745 5746 5746 5745 5747 5748 5747 5746 5744 5744 5744 5743 5743 5743 5743 5743 5743 5743
5761 5744 5743 5750 5752 5749 5750 5750 5751 5750 5747 5748 5750 5753 5756 5754 5751 5749 5748 5747 5748 5749 5751 5753 5752 5752 5751 5749 5748 5747 5747 5745 5746 5745 5744 5745 5744 5743 5742 5739 5740 5739 5739 5739 5739 5739 5740 5741 5742
5757 5746 5749 5751 5754 5753 5749 5749 5753 5748 5742 5747 5747 5748 5750 5749 5749 5748 5748 5748 5748 5749 5749 5750 5751 5750 5749 5747 5746 5745 5744 5743 5743 5742 5741 5742 5741 5741 5740 5739 5738 5737 5737 5737 5737 5738 5738 5738 5737
5751 5750 5752 5750 5752 5750 5748 5747 5747 5746 5746 5754 5755 5753 5749 5747 5747 5747 5747 5747 5747 5747 5747 5748 5748 5748 5747 5745 5744 5742 5742 5742 5741 5740 5740 5740 5739 5738 5737 5737 5735 5734 5734 5733 5734 5734 5735 5735 5734
5748 5747 5749 5751 5750 5749 5747 5743 5743 5744 5749 5753 5753 5750 5747 5746 5746 5747 5748 5746 5746 5744 5744 5745 5745 5745 5744 5742 5740 5741 5739 5739 5738 5736 5737 5736 5736 5735 5735 5733 5731 5731 5730 5730 5730 5731 5730 5730 5730
5747 5747 5747 5747 5746 5745 5741 5740 5740 5742 5748 5747 5747 5745 5746 5745 5745 5744 5744 5744 5744 5743 5744 5744 5743 5743 5742 5741 5740 5739 5737 5735 5735 5734 5733 5733 5732 5732 5731 5730 5728 5727 5726 5725 5726 5726 5726 5726 5725
5748 5741 5740 5742 5743 5742 5740 5732 5737 5743 5744 5742 5743 5744 5743 5744 5743 5742 5743 5743 5745 5744 5744 5742 5741 5740 5739 5738 5736 5735 5734 5734 5733 5731 5732 5731 5729 5729 5728 5727 5725 5723 5722 5722 5722 5721 5721 5721 5720
5743 5736 5728 5735 5739 5739 5733 5724 5737 5743 5741 5738 5740 5741 5739 5740 5742 5743 5743 5743 5744 5743 5742 5741 5738 5737 5736 5735 5733 5732 5731 5730 5729 5728 5728 5727 5726 5725 5724 5723 5721 5719 5718 5717 5716 5716 5715 5715 5715
5731 5725 5724 5728 5737 5736 5732 5727 5736 5741 5738 5737 5738 5739 5738 5739 5740 5741 5742 5742 5742 5741 5741 5739 5737 5735 5733 5732 5730 5729 5728 5726 5726 5725 5724 5723 5723 5722 5721 5718 5717 5716 5715 5713 5712 5711 5711 5709 5708
5722 5724 5722 5723 5732 5732 5728 5729 5735 5738 5736 5736 5737 5738 5737 5737 5739 5741 5741 5740 5740 5739 5739 5738 5735 5733 5731 5729 5729 5726 5725 5724 5723 5721 5720 5719 5718 5718 5716 5714 5714 5712 5710 5708 5708 5706 5705 5704 5703
5728 5723 5720 5724 5731 5727 5726 5728 5734 5736 5734 5734 5735 5736 5737 5737 5740 5741 5739 5738 5737 5735 5735 5735 5733 5731 5729 5726 5725 5723 5721 5720 5719 5718 5717 5715 5715 5714 5713 5712 5711 5708 5707 5705 5704 5702 5701 5700 5700
5723 5718 5718 5722 5727 5724 5724 5726 5734 5734 5732 5733 5734 5735 5735 5736 5736 5736 5736 5736 5734 5733 5733 5733 5732 5730 5727 5725 5724 5722 5719 5718 5717 5714 5713 5712 5711 5711 5709 5708 5707 5704 5702 5701 5700 5697 5696 5695 5695
5718 5716 5716 5715 5718 5722 5718 5720 5727 5731 5732 5732 5733 5735 5735 5734 5734 5735 5734 5733 5732 5731 5731 5731 5730 5728 5725 5723 5721 5718 5716 5714 5712 5711 5710 5709 5708 5707 5706 5705 5703 5701 5700 5697 5695 5694 5691 5689 5689
5711 5719 5716 5712 5709 5711 5712 5706 5724 5728 5726 5727 5729 5731 5732 5733 5733 5733 5733 5730 5730 5730 5730 5729 5728 5726 5724 5721 5718 5715 5712 5710 5710 5709 5708 5706 5704 5703 5702 5701 5699 5698 5696 5694 5692 5691 5689 5686 5684
5714 5717 5714 5711 5708 5707 5711 5705 5719 5724 5719 5723 5728 5729 5729 5731 5731 5730 5730 5729 5729 5729 5727 5726 5725 5723 5720 5718 5715 5713 5711 5710 5709 5707 5705 5703 5701 5700 5698 5697 5696 5695 5693 5691 5689 5687 5685 5683 5681
5712 5709 5708 5706 5704 5694 5708 5703 5708 5720 5719 5722 5725 5727 5727 5728 5728 5728 5728 5726 5725 5724 5722 5721 5720 5718 5716 5714 5713 5711 5708 5706 5704 5702 5701 5700 5698 5697 5695 5693 5692 5691 5689 5688 5685 5683 5680 5679 5677
5707 5699 5688 5685 5686 5694 5706 5700 5707 5719 5720 5720 5720 5722 5723 5723 5724 5723 5722 5721 5721 5719 5718 5717 5715 5713 5712 5711 5710 5709 5707 5705 5703 5701 5699 5697 5696 5694 5692 5690 5689 5688 5686 5684 5681 5679 5677 5675 5672
5702 5700 5684 5674 5679 5692 5697 5696 5710 5717 5717 5718 5718 5719 5719 5717 5718 5718 5718 5717 5717 5716 5715 5714 5712 5710 5709 5708 5707 5707 5705 5702 5701 5699 5698 5695 5694 5692 5690 5688 5686 5684 5682 5680 5678 5676 5673 5672 5669
5696 5695 5699 5688 5686 5681 5692 5702 5708 5711 5710 5710 5710 5711 5711 5712 5712 5712 5713 5713 5713 5712 5711 5711 5709 5707 5706 5704 5703 5702 5701 5699 5697 5696 5695 5692 5691 5689 5688 5685 5683 5681 5678 5676 5674 5671 5669 5667 5665
5696 5695 5687 5680 5669 5670 5683 5692 5698 5701 5701 5704 5704 5704 5705 5706 5707 5708 5707 5708 5708 5707 5706 5707 5706 5704 5702 5701 5700 5698 5697 5695 5693 5692 5689 5689 5688 5686 5684 5682 5680 5677 5675 5672 5670 5667 5665 5663 5660
5682 5682 5683 5682 5680 5670 5671 5687 5703 5701 5700 5699 5700 5700 5699 5700 5701 5702 5702 5702 5703 5702 5701 5701 5700 5699 5698 5697 5695 5693 5691 5690 5689 5687 5685 5684 5683 5682 5680 5678 5676 5674 5672 5669 5666 5663 5660 5659 5656
5684 5682 5680 5670 5671 5675 5673 5682 5699 5698 5697 5695 5695 5695 5695 5695 5695 5696 5696 5696 5696 5696 5695 5694 5695 5694 5692 5692 5690 5689 5687 5685 5684 5682 5681 5679 5678 5677 5676 5674 5672 5670 5668 5666 5663 5659 5656 5655 5652